Location: Unspecified
(0.0000°N, 0.0000°E)
Time: 05:34:26
(UTC+00:00)

STARLINK-34936 - Visible Passes

Search period start: 14 February 2026 00:00
Search period end: 24 February 2026 00:00
Orbit: 474 x 476 km, 53.2° (Epoch: 11 February)

Date Brightness Start Highest point End Pass type
(mag) Time Alt. Az. Time Alt. Az. Time Alt. Az.
19 Feb 5.0 20:12:50 10° SSW 20:13:38 16° SSW 20:13:38 16° SSW visible
20 Feb 3.0 19:42:51 10° SSW 19:45:39 46° S 19:45:39 46° S visible
21 Feb 2.5 19:12:53 10° SSW 19:16:27 49° SE 19:17:45 33° ENE visible
22 Feb 2.9 18:42:54 10° SSW 18:46:21 37° SE 18:49:46 10° NE visible
23 Feb 5.4 19:53:03 10° WNW 19:53:49 11° NW 19:54:37 10° NW visible
